Weather in Tishnevo

Russia / Kaluga Oblast     55°10′07″N   36°17′00″E
temp.,
°C
wind,
m/s
gust,
m/s
humid.,
%
clouds,
%
prec.,
mm/h
press.,
hPa
HPBL,
m
28 november, sun
sun2800:00+4s51397100 1.1 998859
03:00+5ssw51292100 1.3 998926
06:00+4sw51089100 0.1 1000758
09:00+3sw5983100 0.1 1002788
12:00+3sw498476 0.1 1004906
15:00+3sw3881100 0.1 1006455
18:000ssw3893100 0.0 1007213
21:00−1s2596100 0.0 1008114
29 november, mon
mon2900:000se2494100 0.0 100982
03:00+1ese3989100 0.0 1007272
06:00+3se41197100 0.0 1004491
09:00+3se31096100 0.0 1003336
12:00+4ese3896100 0.0 1001261
15:00+4e3798100 0.0 998312
18:00+4e3998100 0.0 995344
21:00+3e3998100 0.4 991413
30 november, tue
tue3000:00+3ene3798100 0.3 986281
03:00+3ne3998100 1.9 979292
06:00+3n4998100 2.9 974321
09:00+3nw4998100 5.3 973415
12:00+3w51095100 2.6 975786
15:00+1wsw71496100 3.7 977810
18:000sw71596100 1.2 980973
21:00−1sw61394100 3.1 981910
1 december, wed
wed100:00−2sw51294100 1.5 982834
03:00−3wsw51194100 3.3 984848
06:00−4w51293100 1.9 987876
09:00−4w51191100 2.8 989901
12:00−4w51083100 0.2 991836
15:00−5w51083100 0.3 993772
18:00−6w41186100 0.0 995644
21:00−7w4108984 0.0 997486
2 december, thu
thu200:00−8w399260 0.0 998358
03:00−8sw2794100 0.0 999237
06:00−6s399074 0.0 998298
09:00−4sse51494100 0.4 995476
12:00−1ssw61595100 1.9 993745
15:00+2ssw51398100 2.2 993946
18:00+3sw61396100 0.1 9941009
21:00+2sw61384100 0.4 9951054